| time (UTC) | temp C | wind direction | speed KPH | gust KPH | rain 1hr cm | rain 24hr cm | rain mn cm | humidity % | barometer mb |
| 20260901173619 | 24 | 200 | 6.4 | 16.1 | 0.00 | 0.00 | 0.00 | 36 | 986.7 |
| 20260901173615 | 24 | 167 | 6.4 | 16.1 | 0.00 | 0.00 | 0.00 | 37 | 986.7 |
| 20260901172612 | 24 | 196 | 6.4 | 17.7 | 0.00 | 0.00 | 0.00 | 37 | 986.9 |
| 20260901172113 | 24 | 167 | 6.4 | 17.7 | 0.00 | 0.00 | 0.00 | 36 | 987.0 |
| 20260901171612 | 23 | 210 | 6.4 | 14.5 | 0.00 | 0.00 | 0.00 | 39 | 987.0 |
| 20260901171111 | 23 | 215 | 6.4 | 16.1 | 0.00 | 0.00 | 0.00 | 40 | 987.1 |
| 20260901170610 | 22 | 180 | 4.8 | 16.1 | 0.00 | 0.00 | 0.00 | 44 | 987.2 |
| 20260901170109 | 22 | 214 | 4.8 | 11.3 | 0.00 | 0.00 | 0.00 | 46 | 987.2 |
| 20260901165613 | 21 | 251 | 3.2 | 8.0 | 0.00 | 0.00 | 0.00 | 51 | 987.3 |
| 20260901165609 | 21 | 224 | 3.2 | 11.3 | 0.00 | 0.00 | 0.00 | 50 | 987.3 |
| 20260901164606 | 20 | 212 | 1.6 | 14.5 | 0.00 | 0.00 | 0.00 | 51 | 987.3 |
| 20260901164106 | 20 | 229 | 1.6 | 14.5 | 0.00 | 0.00 | 0.00 | 50 | 987.4 |
| 20260901163607 | 20 | 245 | 3.2 | 9.7 | 0.00 | 0.00 | 0.00 | 50 | 987.3 |
| 20260901163109 | 20 | 333 | 3.2 | 9.7 | 0.00 | 0.00 | 0.00 | 51 | 987.3 |
| 20260901163105 | 20 | 243 | 1.6 | 8.0 | 0.00 | 0.00 | 0.00 | 52 | 987.3 |
| 20260901162104 | 20 | 208 | 1.6 | 8.0 | 0.00 | 0.00 | 0.00 | 52 | 987.3 |
| 20260901161607 | 20 | 304 | 0.0 | 8.0 | 0.00 | 0.00 | 0.00 | 52 | 987.3 |
| 20260901161603 | 20 | 311 | 0.0 | 4.8 | 0.00 | 0.00 | 0.00 | 54 | 987.3 |
| 20260901160601 | 20 | 308 | 0.0 | 4.8 | 0.00 | 0.00 | 0.00 | 53 | 987.3 |
| 20260901160100 | 19 | 203 | 1.6 | 8.0 | 0.00 | 0.00 | 0.00 | 54 | 987.2 |
| 20260901155600 | 19 | 165 | 3.2 | 9.7 | 0.00 | 0.00 | 0.00 | 54 | 987.2 |
| 20260901155104 | 19 | 217 | 1.6 | 12.9 | 0.00 | 0.00 | 0.00 | 54 | 987.2 |
| 20260901155100 | 19 | 191 | 3.2 | 12.9 | 0.00 | 0.00 | 0.00 | 55 | 987.2 |
| 20260901154101 | 19 | 290 | 1.6 | 4.8 | 0.00 | 0.00 | 0.00 | 54 | 987.1 |
| 20260901153601 | 19 | 214 | 1.6 | 11.3 | 0.00 | 0.00 | 0.00 | 55 | 987.2 |
| 20260901153100 | 19 | 252 | 3.2 | 14.5 | 0.00 | 0.00 | 0.00 | 55 | 987.1 |
| 20260901152605 | 18 | 316 | 1.6 | 12.9 | 0.00 | 0.00 | 0.00 | 55 | 987.1 |
| 20260901152559 | 18 | 222 | 3.2 | 14.5 | 0.00 | 0.00 | 0.00 | 55 | 987.1 |
| 20260901151558 | 18 | 245 | 1.6 | 8.0 | 0.00 | 0.00 | 0.00 | 56 | 987.1 |
| 20260901151058 | 18 | 221 | 3.2 | 12.9 | 0.00 | 0.00 | 0.00 | 55 | 987.0 |
| 20260901150558 | 18 | 318 | 3.2 | 12.9 | 0.00 | 0.00 | 0.00 | 56 | 986.9 |
| 20260901150058 | 18 | 242 | 1.6 | 8.0 | 0.00 | 0.00 | 0.00 | 56 | 986.9 |
| 20260901145103 | 18 | 290 | 4.8 | 11.3 | 0.00 | 0.00 | 0.00 | 55 | 986.9 |
| 20260901145058 | 18 | 303 | 1.6 | 8.0 | 0.00 | 0.00 | 0.00 | 56 | 986.9 |
| 20260901144559 | 18 | 201 | 3.2 | 11.3 | 0.00 | 0.00 | 0.00 | 55 | 986.9 |
| 20260901143558 | 18 | 226 | 6.4 | 16.1 | 0.00 | 0.00 | 0.00 | 56 | 986.6 |
| 20260901143100 | 18 | 242 | 9.7 | 19.3 | 0.00 | 0.00 | 0.00 | 57 | 986.5 |
| 20260901143056 | 18 | 231 | 8.0 | 19.3 | 0.00 | 0.00 | 0.00 | 56 | 986.6 |
| 20260901142101 | 18 | 198 | 9.7 | 20.9 | 0.00 | 0.00 | 0.00 | 57 | 986.4 |
| 20260901142056 | 18 | 198 | 11.3 | 20.9 | 0.00 | 0.00 | 0.00 | 56 | 986.5 |
| 20260901141056 | 18 | 198 | 9.7 | 16.1 | 0.00 | 0.00 | 0.00 | 58 | 986.4 |
| 20260901140556 | 18 | 221 | 9.7 | 16.1 | 0.00 | 0.00 | 0.00 | 59 | 986.4 |
| 20260901140055 | 18 | 209 | 9.7 | 16.1 | 0.00 | 0.00 | 0.00 | 59 | 986.4 |
| 20260901135556 | 18 | 175 | 9.7 | 14.5 | 0.00 | 0.00 | 0.00 | 59 | 986.4 |
| 20260901135057 | 18 | 195 | 9.7 | 17.7 | 0.00 | 0.00 | 0.00 | 59 | 986.5 |
| 20260901134555 | 18 | 196 | 8.0 | 17.7 | 0.00 | 0.00 | 0.00 | 59 | 986.5 |
| 20260901134054 | 18 | 198 | 8.0 | 16.1 | 0.00 | 0.00 | 0.00 | 60 | 986.6 |
| 20260901133554 | 18 | 203 | 8.0 | 16.1 | 0.00 | 0.00 | 0.00 | 60 | 986.6 |
| 20260901133053 | 18 | 205 | 8.0 | 16.1 | 0.00 | 0.00 | 0.00 | 60 | 986.6 |
| 20260901132554 | 18 | 197 | 8.0 | 14.5 | 0.00 | 0.00 | 0.00 | 60 | 986.5 |
| 20260901132054 | 17 | 204 | 8.0 | 14.5 | 0.00 | 0.00 | 0.00 | 60 | 986.6 |
| 20260901131553 | 17 | 217 | 6.4 | 14.5 | 0.00 | 0.00 | 0.00 | 61 | 986.5 |
| 20260901131054 | 17 | 213 | 6.4 | 17.7 | 0.00 | 0.00 | 0.00 | 62 | 986.5 |
| 20260901130554 | 17 | 205 | 4.8 | 17.7 | 0.00 | 0.00 | 0.00 | 62 | 986.4 |
| 20260901130058 | 16 | 178 | 3.2 | 8.0 | 0.00 | 0.00 | 0.00 | 66 | 986.0 |
| 20260901130054 | 17 | 212 | 3.2 | 9.7 | 0.00 | 0.00 | 0.00 | 64 | 986.3 |
| 20260901125553 | 16 | 172 | 1.6 | 8.0 | 0.00 | 0.00 | 0.00 | 68 | 985.9 |
| 20260901124552 | 16 | 190 | 1.6 | 8.0 | 0.00 | 0.00 | 0.00 | 69 | 985.9 |
| 20260901124052 | 16 | 216 | 3.2 | 8.0 | 0.00 | 0.00 | 0.00 | 70 | 985.8 |
| 20260901123552 | 16 | 193 | 3.2 | 8.0 | 0.00 | 0.00 | 0.00 | 70 | 985.8 |
| 20260901123050 | 16 | 183 | 3.2 | 8.0 | 0.00 | 0.00 | 0.00 | 69 | 985.8 |
| 20260901122550 | 16 | 212 | 3.2 | 8.0 | 0.00 | 0.00 | 0.00 | 69 | 985.7 |
| 20260901122050 | 16 | 213 | 3.2 | 8.0 | 0.00 | 0.00 | 0.00 | 70 | 985.6 |
| 20260901121551 | 16 | 189 | 3.2 | 8.0 | 0.00 | 0.00 | 0.00 | 71 | 985.6 |
| 20260901121051 | 16 | 202 | 4.8 | 11.3 | 0.00 | 0.00 | 0.00 | 71 | 985.4 |
| 20260901120549 | 16 | 196 | 6.4 | 11.3 | 0.00 | 0.00 | 0.00 | 72 | 985.4 |
| 20260901120050 | 16 | 205 | 4.8 | 12.9 | 0.00 | 0.00 | 0.00 | 73 | 985.4 |
| 20260901115549 | 15 | 198 | 1.6 | 12.9 | 0.00 | 0.00 | 0.00 | 75 | 985.4 |
| 20260901115053 | 15 | 219 | 1.6 | 6.4 | 0.00 | 0.00 | 0.00 | 77 | 985.4 |
| 20260901115049 | 15 | 155 | 3.2 | 8.0 | 0.00 | 0.00 | 0.00 | 77 | 985.4 |
| 20260901114653 | 15 | 200 | 3.2 | 9.7 | 0.00 | 0.00 | 0.00 | 78 | 985.6 |
| 20260901114047 | 15 | 169 | 3.2 | 9.7 | 0.00 | 0.00 | 0.00 | 78 | 985.6 |
| 20260901113047 | 15 | 136 | 3.2 | 9.7 | 0.00 | 0.00 | 0.00 | 78 | 985.6 |
| 20260901112547 | 15 | 189 | 3.2 | 9.7 | 0.00 | 0.00 | 0.00 | 78 | 985.6 |
| 20260901112048 | 15 | 142 | 3.2 | 8.0 | 0.00 | 0.00 | 0.00 | 78 | 985.6 |
| 20260901111548 | 15 | 183 | 1.6 | 9.7 | 0.00 | 0.00 | 0.00 | 79 | 985.4 |
| 20260901111048 | 15 | 160 | 3.2 | 9.7 | 0.00 | 0.00 | 0.00 | 79 | 985.6 |
| 20260901110551 | 14 | 186 | 1.6 | 9.7 | 0.00 | 0.00 | 0.00 | 80 | 985.7 |
| 20260901110547 | 15 | 143 | 3.2 | 9.7 | 0.00 | 0.00 | 0.00 | 79 | 985.7 |
| 20260901105547 | 14 | 187 | 0.0 | 4.8 | 0.00 | 0.00 | 0.00 | 81 | 985.8 |
| 20260901105047 | 14 | 214 | 0.0 | 4.8 | 0.00 | 0.00 | 0.00 | 81 | 985.9 |
| 20260901104552 | 14 | 208 | 0.0 | 3.2 | 0.00 | 0.00 | 0.00 | 82 | 985.9 |
| 20260901104548 | 14 | 153 | 0.0 | 1.6 | 0.00 | 0.00 | 0.00 | 81 | 985.9 |
| 20260901103547 | 13 | 210 | 0.0 | 3.2 | 0.00 | 0.00 | 0.00 | 83 | 985.9 |
| 20260901103051 | 13 | 147 | 0.0 | 0.0 | 0.00 | 0.00 | 0.00 | 85 | 986.0 |
| 20260901103047 | 13 | 150 | 0.0 | 0.0 | 0.00 | 0.00 | 0.00 | 84 | 986.0 |
| 20260901102654 | 13 | 138 | 0.0 | 0.0 | 0.00 | 0.00 | 0.00 | 85 | 986.0 |
| 20260901101548 | 13 | 138 | 0.0 | 0.0 | 0.00 | 0.00 | 0.00 | 84 | 986.3 |
| 20260901101047 | 12 | 212 | 0.0 | 0.0 | 0.00 | 0.00 | 0.00 | 85 | 986.1 |
| 20260901100551 | 12 | 212 | 0.0 | 0.0 | 0.00 | 0.00 | 0.00 | 85 | 986.3 |
| 20260901100547 | 12 | 212 | 0.0 | 0.0 | 0.00 | 0.00 | 0.00 | 85 | 986.3 |
| 20260901095551 | 13 | 158 | 0.0 | 0.0 | 0.00 | 0.00 | 0.00 | 85 | 986.4 |
| 20260901095547 | 12 | 212 | 0.0 | 0.0 | 0.00 | 0.00 | 0.00 | 85 | 986.3 |
| 20260901094547 | 13 | 157 | 0.0 | 0.0 | 0.00 | 0.00 | 0.00 | 84 | 986.3 |
| 20260901094048 | 12 | 157 | 0.0 | 0.0 | 0.00 | 0.00 | 0.00 | 84 | 986.4 |
| 20260901093549 | 12 | 157 | 0.0 | 0.0 | 0.00 | 0.00 | 0.00 | 84 | 986.5 |
| 20260901093048 | 12 | 157 | 0.0 | 0.0 | 0.00 | 0.00 | 0.00 | 84 | 986.6 |
| 20260901092547 | 12 | 157 | 0.0 | 0.0 | 0.00 | 0.00 | 0.00 | 85 | 986.7 |
| 20260901092048 | 13 | 157 | 0.0 | 0.0 | 0.00 | 0.00 | 0.00 | 84 | 986.7 |
| 20260901091547 | 13 | 158 | 0.0 | 0.0 | 0.00 | 0.00 | 0.00 | 84 | 986.9 |
| 20260901091048 | 13 | 196 | 0.0 | 0.0 | 0.00 | 0.00 | 0.00 | 84 | 986.7 |
| 20260901090548 | 13 | 196 | 0.0 | 0.0 | 0.00 | 0.00 | 0.00 | 84 | 986.9 |
| 20260901090047 | 13 | 196 | 0.0 | 0.0 | 0.00 | 0.00 | 0.00 | 83 | 986.9 |
| 20260901085547 | 13 | 196 | 0.0 | 0.0 | 0.00 | 0.00 | 0.00 | 83 | 987.0 |
| 20260901085052 | 13 | 196 | 0.0 | 0.0 | 0.00 | 0.00 | 0.00 | 82 | 987.0 |
| 20260901085048 | 13 | 196 | 0.0 | 0.0 | 0.00 | 0.00 | 0.00 | 82 | 986.9 |
| 20260901084048 | 13 | 196 | 0.0 | 0.0 | 0.00 | 0.00 | 0.00 | 82 | 987.0 |
| 20260901083551 | 13 | 196 | 0.0 | 0.0 | 0.00 | 0.00 | 0.00 | 83 | 987.1 |
| 20260901083547 | 13 | 196 | 0.0 | 0.0 | 0.00 | 0.00 | 0.00 | 82 | 987.0 |
| 20260901082547 | 13 | 196 | 0.0 | 0.0 | 0.00 | 0.00 | 0.00 | 83 | 987.1 |
| 20260901082047 | 13 | 196 | 0.0 | 0.0 | 0.00 | 0.00 | 0.00 | 82 | 987.1 |
| 20260901081045 | 14 | 186 | 0.0 | 0.0 | 0.00 | 0.00 | 0.00 | 81 | 987.2 |
| 20260901080547 | 14 | 186 | 0.0 | 0.0 | 0.00 | 0.00 | 0.00 | 81 | 987.3 |
| 20260901080049 | 14 | 194 | 0.0 | 0.0 | 0.00 | 0.00 | 0.00 | 81 | 987.4 |
| 20260901080045 | 14 | 194 | 0.0 | 0.0 | 0.00 | 0.00 | 0.00 | 80 | 987.3 |
| 20260901075045 | 14 | 223 | 0.0 | 0.0 | 0.00 | 0.00 | 0.00 | 81 | 987.6 |
| 20260901074545 | 13 | 223 | 0.0 | 0.0 | 0.00 | 0.00 | 0.00 | 82 | 987.6 |
| 20260901074045 | 13 | 239 | 0.0 | 0.0 | 0.00 | 0.00 | 0.00 | 83 | 987.7 |
| 20260901073546 | 13 | 205 | 0.0 | 0.0 | 0.00 | 0.00 | 0.00 | 83 | 987.7 |
| 20260901073046 | 13 | 167 | 0.0 | 0.0 | 0.00 | 0.00 | 0.00 | 84 | 987.6 |
| 20260901072545 | 13 | 167 | 0.0 | 0.0 | 0.00 | 0.00 | 0.00 | 84 | 987.4 |
| 20260901072043 | 13 | 208 | 0.0 | 0.0 | 0.00 | 0.00 | 0.00 | 83 | 987.4 |
| 20260901071548 | 13 | 208 | 0.0 | 0.0 | 0.00 | 0.00 | 0.00 | 83 | 987.6 |
| 20260901071543 | 13 | 208 | 0.0 | 0.0 | 0.00 | 0.00 | 0.00 | 83 | 987.3 |
| 20260901071153 | 13 | 208 | 0.0 | 0.0 | 0.00 | 0.00 | 0.00 | 81 | 987.4 |
| 20260901071149 | 13 | 208 | 0.0 | 0.0 | 0.00 | 0.00 | 0.00 | 82 | 987.4 |
| 20260901070148 | 13 | 208 | 0.0 | 0.0 | 0.00 | 0.00 | 0.00 | 82 | 987.4 |
| 20260901065648 | 13 | 208 | 0.0 | 0.0 | 0.00 | 0.00 | 0.00 | 82 | 987.3 |
| 20260901065043 | 13 | 208 | 0.0 | 0.0 | 0.00 | 0.00 | 0.00 | 82 | 987.3 |
| 20260901064043 | 13 | 208 | 0.0 | 0.0 | 0.00 | 0.00 | 0.00 | 82 | 987.2 |
| 20260901063545 | 13 | 208 | 0.0 | 0.0 | 0.00 | 0.00 | 0.00 | 82 | 987.2 |
| 20260901063541 | 13 | 162 | 0.0 | 0.0 | 0.00 | 0.00 | 0.00 | 81 | 987.3 |
| 20260901062541 | 13 | 203 | 0.0 | 0.0 | 0.00 | 0.00 | 0.00 | 81 | 987.2 |
| 20260901062042 | 13 | 203 | 0.0 | 0.0 | 0.00 | 0.00 | 0.00 | 82 | 987.2 |
| 20260901061541 | 14 | 203 | 0.0 | 0.0 | 0.00 | 0.00 | 0.00 | 82 | 987.3 |
| 20260901061041 | 14 | 203 | 0.0 | 0.0 | 0.00 | 0.00 | 0.00 | 81 | 987.3 |
| 20260901060541 | 14 | 203 | 0.0 | 0.0 | 0.00 | 0.00 | 0.00 | 81 | 987.3 |
| 20260901060044 | 14 | 155 | 0.0 | 0.0 | 0.00 | 0.00 | 0.00 | 81 | 987.3 |
| 20260901060040 | 14 | 153 | 0.0 | 0.0 | 0.00 | 0.00 | 0.00 | 81 | 987.3 |
| 20260901055038 | 14 | 153 | 0.0 | 0.0 | 0.00 | 0.00 | 0.00 | 80 | 987.4 |
| 20260901054538 | 14 | 154 | 0.0 | 0.0 | 0.00 | 0.00 | 0.00 | 80 | 987.6 |
| 20260901054038 | 14 | 154 | 0.0 | 0.0 | 0.00 | 0.00 | 0.00 | 81 | 987.7 |
| 20260901053537 | 14 | 154 | 0.0 | 0.0 | 0.00 | 0.00 | 0.00 | 81 | 987.7 |
| 20260901053038 | 14 | 154 | 0.0 | 0.0 | 0.00 | 0.00 | 0.00 | 81 | 987.8 |
| 20260901052538 | 14 | 154 | 0.0 | 0.0 | 0.00 | 0.00 | 0.00 | 81 | 987.7 |
| 20260901052036 | 14 | 154 | 0.0 | 0.0 | 0.00 | 0.00 | 0.00 | 80 | 987.7 |
| 20260901051542 | 14 | 154 | 0.0 | 0.0 | 0.00 | 0.00 | 0.00 | 79 | 987.7 |
| 20260901051537 | 14 | 154 | 0.0 | 0.0 | 0.00 | 0.00 | 0.00 | 79 | 987.7 |
| 20260901051142 | 15 | 153 | 0.0 | 3.2 | 0.00 | 0.00 | 0.00 | 79 | 987.7 |
| 20260901050035 | 15 | 153 | 0.0 | 3.2 | 0.00 | 0.00 | 0.00 | 79 | 987.7 |
| 20260901045536 | 15 | 179 | 0.0 | 1.6 | 0.00 | 0.00 | 0.00 | 80 | 987.8 |
| 20260901045037 | 15 | 159 | 0.0 | 3.2 | 0.00 | 0.00 | 0.00 | 80 | 987.7 |
| 20260901044536 | 15 | 186 | 0.0 | 3.2 | 0.00 | 0.00 | 0.00 | 79 | 987.7 |
| 20260901044036 | 15 | 195 | 0.0 | 4.8 | 0.00 | 0.00 | 0.00 | 80 | 987.7 |
| 20260901043536 | 15 | 195 | 0.0 | 4.8 | 0.00 | 0.03 | 0.00 | 81 | 987.8 |
| 20260901043034 | 15 | 191 | 0.0 | 0.0 | 0.00 | 0.03 | 0.00 | 81 | 987.7 |
| 20260901042540 | 15 | 185 | 0.0 | 4.8 | 0.00 | 0.10 | 0.00 | 81 | 987.4 |
| 20260901042534 | 14 | 212 | 0.0 | 0.0 | 0.00 | 0.08 | 0.00 | 82 | 987.4 |
| 20260901042035 | 15 | 212 | 0.0 | 0.0 | 0.00 | 0.10 | 0.00 | 81 | 987.3 |
| 20260901041034 | 15 | 165 | 0.0 | 4.8 | 0.00 | 0.13 | 0.00 | 80 | 987.4 |
| 20260901040535 | 15 | 152 | 0.0 | 3.2 | 0.00 | 0.13 | 0.00 | 79 | 987.4 |
| 20260901040033 | 15 | 257 | 0.0 | 0.0 | 0.00 | 0.13 | 0.00 | 78 | 987.4 |
| 20260901035534 | 15 | 257 | 0.0 | 0.0 | 0.00 | 0.13 | 0.00 | 78 | 987.6 |
| 20260901035033 | 15 | 257 | 0.0 | 0.0 | 0.00 | 0.13 | 0.00 | 78 | 987.8 |
| 20260901034532 | 15 | 229 | 0.0 | 1.6 | 0.00 | 0.13 | 0.00 | 78 | 987.7 |
| 20260901034031 | 15 | 310 | 0.0 | 1.6 | 0.00 | 0.13 | 0.00 | 79 | 987.7 |
| 20260901033532 | 15 | 335 | 0.0 | 1.6 | 0.00 | 0.13 | 0.00 | 80 | 987.8 |
| 20260901033031 | 15 | 353 | 0.0 | 0.0 | 0.00 | 0.13 | 0.00 | 80 | 987.9 |
| 20260901032532 | 15 | 353 | 0.0 | 1.6 | 0.00 | 0.13 | 0.00 | 79 | 987.9 |
| 20260901032032 | 16 | 353 | 0.0 | 1.6 | 0.00 | 0.13 | 0.00 | 78 | 987.9 |
| 20260901031531 | 16 | 337 | 0.0 | 3.2 | 0.00 | 0.13 | 0.00 | 76 | 987.9 |
| 20260901031032 | 16 | 335 | 0.0 | 3.2 | 0.00 | 0.13 | 0.00 | 75 | 988.0 |
| 20260901030531 | 16 | 328 | 0.0 | 3.2 | 0.00 | 0.13 | 0.00 | 74 | 988.2 |
| 20260901030032 | 16 | 14 | 0.0 | 3.2 | 0.00 | 0.13 | 0.00 | 73 | 988.0 |
| 20260901025531 | 16 | 330 | 0.0 | 3.2 | 0.00 | 0.13 | 0.00 | 74 | 988.0 |
| 20260901025032 | 16 | 18 | 0.0 | 4.8 | 0.00 | 0.13 | 0.00 | 74 | 987.9 |
| 20260901024532 | 16 | 315 | 0.0 | 4.8 | 0.00 | 0.13 | 0.00 | 75 | 987.8 |
| 20260901024031 | 16 | 311 | 0.0 | 8.0 | 0.00 | 0.13 | 0.00 | 75 | 987.7 |
| 20260901023531 | 16 | 293 | 1.6 | 9.7 | 0.00 | 0.13 | 0.00 | 74 | 987.6 |
| 20260901023036 | 16 | 297 | 1.6 | 12.9 | 0.00 | 0.13 | 0.00 | 73 | 987.7 |
| 20260901023032 | 16 | 227 | 1.6 | 9.7 | 0.00 | 0.13 | 0.00 | 73 | 987.7 |
| 20260901022031 | 17 | 212 | 4.8 | 17.7 | 0.00 | 0.13 | 0.00 | 71 | 987.7 |
| 20260901021531 | 17 | 198 | 8.0 | 22.5 | 0.00 | 0.13 | 0.00 | 69 | 987.6 |
| 20260901021031 | 18 | 224 | 9.7 | 27.4 | 0.00 | 0.13 | 0.00 | 65 | 987.7 |
| 20260901020531 | 18 | 290 | 14.5 | 27.4 | 0.00 | 0.13 | 0.00 | 62 | 987.8 |
| 20260901020032 | 19 | 216 | 16.1 | 37.0 | 0.00 | 0.13 | 0.00 | 59 | 987.4 |
| 20260901015536 | 22 | 224 | 9.7 | 37.0 | 0.00 | 0.13 | 0.00 | 46 | 986.7 |
| 20260901015531 | 20 | 212 | 16.1 | 37.0 | 0.00 | 0.13 | 0.00 | 54 | 987.3 |
| 20260901014531 | 22 | 148 | 3.2 | 9.7 | 0.00 | 0.13 | 0.00 | 45 | 985.9 |
| 20260901014031 | 22 | 181 | 3.2 | 9.7 | 0.00 | 0.13 | 0.00 | 44 | 985.6 |
| 20260901013532 | 22 | 226 | 1.6 | 9.7 | 0.00 | 0.13 | 0.00 | 43 | 985.3 |
| 20260901013031 | 22 | 173 | 0.0 | 6.4 | 0.00 | 0.13 | 0.00 | 42 | 985.2 |
| 20260901012531 | 23 | 205 | 1.6 | 8.0 | 0.00 | 0.13 | 0.00 | 42 | 985.2 |
| 20260901012031 | 23 | 120 | 3.2 | 19.3 | 0.00 | 0.13 | 0.00 | 42 | 985.1 |
| 20260901011540 | 23 | 182 | 6.4 | 14.5 | 0.00 | 0.13 | 0.00 | 40 | 984.8 |
| 20260901011536 | 23 | 144 | 8.0 | 19.3 | 0.00 | 0.13 | 0.00 | 40 | 985.0 |
| 20260901010531 | 24 | 115 | 1.6 | 12.9 | 0.00 | 0.13 | 0.00 | 39 | 984.6 |
| 20260901010032 | 24 | 234 | 0.0 | 6.4 | 0.00 | 0.13 | 0.00 | 42 | 984.5 |
| 20260901005531 | 25 | 231 | 0.0 | 6.4 | 0.00 | 0.13 | 0.00 | 42 | 984.5 |
| 20260901005032 | 25 | 342 | 0.0 | 1.6 | 0.00 | 0.13 | 0.00 | 41 | 984.6 |
| 20260901004531 | 25 | 352 | 0.0 | 1.6 | 0.00 | 0.13 | 0.00 | 40 | 984.7 |
| 20260901004030 | 25 | 158 | 0.0 | 3.2 | 0.00 | 0.13 | 0.00 | 38 | 984.8 |
| 20260901003528 | 25 | 165 | 0.0 | 6.4 | 0.00 | 0.13 | 0.00 | 38 | 985.0 |
| 20260901003025 | 26 | 155 | 0.0 | 6.4 | 0.00 | 0.13 | 0.00 | 37 | 985.0 |
| 20260901002525 | 25 | 261 | 0.0 | 3.2 | 0.00 | 0.13 | 0.00 | 37 | 985.0 |
| 20260901002030 | 26 | 264 | 0.0 | 3.2 | 0.00 | 0.13 | 0.00 | 36 | 985.2 |
| 20260901002026 | 25 | 113 | 0.0 | 3.2 | 0.00 | 0.13 | 0.00 | 37 | 985.1 |
| 20260901001025 | 26 | 357 | 0.0 | 3.2 | 0.00 | 0.13 | 0.00 | 35 | 985.2 |
| 20260901000524 | 26 | 124 | 0.0 | 3.2 | 0.00 | 0.13 | 0.00 | 35 | 985.2 |
| 20260901000024 | 26 | 107 | 0.0 | 4.8 | 0.00 | 0.13 | 0.00 | 34 | 985.3 |
| 20260831235521 | 26 | 220 | 0.0 | 4.8 | 0.00 | 0.13 | 0.00 | 34 | 985.3 |
| 20260831235026 | 27 | 227 | 0.0 | 4.8 | 0.00 | 0.13 | 0.00 | 32 | 985.4 |
| 20260831235022 | 26 | 276 | 0.0 | 4.8 | 0.00 | 0.13 | 0.00 | 34 | 985.4 |
| 20260831234025 | 27 | 284 | 0.0 | 3.2 | 0.00 | 0.13 | 0.00 | 32 | 985.3 |
| 20260831234021 | 27 | 56 | 0.0 | 3.2 | 0.00 | 0.13 | 0.00 | 32 | 985.3 |
| 20260831233018 | 28 | 272 | 0.0 | 3.2 | 0.00 | 0.13 | 0.00 | 31 | 985.3 |
| 20260831232521 | 28 | 145 | 0.0 | 4.8 | 0.00 | 0.13 | 0.00 | 30 | 985.4 |
| 20260831232517 | 28 | 203 | 0.0 | 3.2 | 0.00 | 0.13 | 0.00 | 31 | 985.4 |
| 20260831232123 | 28 | 227 | 0.0 | 9.7 | 0.00 | 0.13 | 0.00 | 31 | 985.6 |
| 20260831231017 | 28 | 115 | 0.0 | 9.7 | 0.00 | 0.13 | 0.00 | 31 | 985.4 |
| 20260831230519 | 27 | 151 | 0.0 | 4.8 | 0.00 | 0.13 | 0.00 | 31 | 985.4 |
| 20260831230515 | 28 | 82 | 0.0 | 3.2 | 0.00 | 0.13 | 0.00 | 30 | 985.4 |
| 20260831225515 | 27 | 124 | 0.0 | 4.8 | 0.00 | 0.13 | 0.00 | 32 | 985.6 |
| 20260831225020 | 26 | 356 | 0.0 | 3.2 | 0.00 | 0.13 | 0.00 | 33 | 985.7 |
| 20260831225014 | 26 | 242 | 0.0 | 3.2 | 0.00 | 0.13 | 0.00 | 32 | 985.6 |
| 20260831224013 | 26 | 156 | 0.0 | 3.2 | 0.00 | 0.15 | 0.00 | 32 | 985.8 |
| 20260831223513 | 26 | 341 | 0.0 | 3.2 | 0.00 | 0.15 | 0.00 | 33 | 985.8 |
| 20260831223013 | 27 | 266 | 0.0 | 1.6 | 0.00 | 0.23 | 0.00 | 32 | 985.8 |
| 20260831222620 | 28 | 319 | 0.0 | 8.0 | 0.00 | 0.41 | 0.00 | 30 | 986.0 |
| 20260831222518 | 27 | 241 | 0.0 | 3.2 | 0.00 | 0.41 | 0.00 | 31 | 986.0 |
| 20260831222513 | 27 | 248 | 0.0 | 3.2 | 0.00 | 0.41 | 0.00 | 31 | 985.9 |
| 20260831221013 | 28 | 118 | 0.0 | 11.3 | 0.00 | 0.41 | 0.00 | 29 | 986.0 |
| 20260831220514 | 28 | 134 | 1.6 | 11.3 | 0.00 | 0.41 | 0.00 | 29 | 986.0 |
| 20260831220015 | 28 | 130 | 0.0 | 6.4 | 0.00 | 0.43 | 0.00 | 29 | 986.0 |
| 20260831215512 | 29 | 195 | 0.0 | 4.8 | 0.00 | 0.46 | 0.00 | 28 | 986.0 |
| 20260831215022 | 30 | 252 | 0.0 | 4.8 | 0.00 | 0.48 | 0.00 | 30 | 986.0 |
| 20260831214512 | 30 | 236 | 0.0 | 3.2 | 0.00 | 0.51 | 0.00 | 29 | 986.1 |
| 20260831214016 | 29 | 254 | 0.0 | 4.8 | 0.00 | 0.53 | 0.00 | 29 | 986.1 |
| 20260831213511 | 28 | 199 | 1.6 | 8.0 | 0.00 | 0.53 | 0.00 | 29 | 986.3 |
| 20260831213011 | 28 | 197 | 1.6 | 9.7 | 0.00 | 0.53 | 0.00 | 29 | 986.4 |
| 20260831212512 | 28 | 191 | 0.0 | 9.7 | 0.00 | 0.53 | 0.00 | 29 | 986.4 |
| 20260831212011 | 27 | 49 | 0.0 | 4.8 | 0.00 | 0.53 | 0.00 | 30 | 986.5 |
| 20260831211510 | 27 | 125 | 0.0 | 4.8 | 0.00 | 0.53 | 0.00 | 31 | 986.7 |
| 20260831211010 | 28 | 124 | 0.0 | 1.6 | 0.00 | 0.53 | 0.00 | 29 | 986.6 |
| 20260831210510 | 28 | 124 | 0.0 | 6.4 | 0.00 | 0.53 | 0.00 | 30 | 986.6 |
| 20260831210009 | 28 | 166 | 0.0 | 6.4 | 0.00 | 0.53 | 0.00 | 28 | 986.6 |
| 20260831205509 | 28 | 129 | 0.0 | 3.2 | 0.00 | 0.53 | 0.00 | 29 | 986.6 |
| 20260831205009 | 28 | 130 | 0.0 | 3.2 | 0.00 | 0.53 | 0.00 | 30 | 986.7 |
| 20260831204508 | 27 | 129 | 1.6 | 9.7 | 0.00 | 0.53 | 0.00 | 31 | 986.9 |
| 20260831204013 | 27 | 183 | 0.0 | 8.0 | 0.00 | 0.53 | 0.00 | 31 | 987.0 |
| 20260831204009 | 27 | 135 | 1.6 | 9.7 | 0.00 | 0.53 | 0.00 | 31 | 986.9 |
| 20260831203014 | 27 | 150 | 0.0 | 3.2 | 0.00 | 0.53 | 0.00 | 31 | 987.0 |
| 20260831203010 | 27 | 139 | 0.0 | 3.2 | 0.00 | 0.53 | 0.00 | 31 | 987.0 |
| 20260831202013 | 27 | 120 | 0.0 | 4.8 | 0.00 | 0.53 | 0.00 | 31 | 987.2 |
| 20260831202009 | 27 | 150 | 0.0 | 3.2 | 0.00 | 0.53 | 0.00 | 31 | 987.0 |
| 20260831201009 | 27 | 281 | 0.0 | 4.8 | 0.00 | 0.53 | 0.00 | 30 | 987.2 |
| 20260831200510 | 27 | 143 | 0.0 | 4.8 | 0.00 | 0.53 | 0.00 | 33 | 987.2 |
| 20260831200009 | 27 | 194 | 0.0 | 4.8 | 0.00 | 0.53 | 0.00 | 32 | 987.3 |
| 20260831195509 | 27 | 129 | 0.0 | 3.2 | 0.00 | 0.53 | 0.00 | 31 | 987.3 |
| 20260831195014 | 27 | 306 | 0.0 | 6.4 | 0.00 | 0.53 | 0.00 | 31 | 987.4 |
| 20260831195009 | 27 | 309 | 0.0 | 3.2 | 0.00 | 0.53 | 0.00 | 33 | 987.4 |
| 20260831194615 | 27 | 160 | 1.6 | 8.0 | 0.00 | 0.53 | 0.00 | 33 | 987.7 |
| 20260831193507 | 27 | 168 | 1.6 | 8.0 | 0.00 | 0.53 | 0.00 | 33 | 987.7 |
| 20260831193005 | 27 | 213 | 0.0 | 3.2 | 0.00 | 0.53 | 0.00 | 33 | 987.7 |
| 20260831192505 | 27 | 200 | 0.0 | 1.6 | 0.00 | 0.53 | 0.00 | 34 | 987.7 |
| 20260831192009 | 26 | 150 | 1.6 | 6.4 | 0.00 | 0.53 | 0.00 | 35 | 987.9 |
| 20260831192005 | 26 | 134 | 1.6 | 6.4 | 0.00 | 0.53 | 0.00 | 35 | 987.7 |
| 20260831191005 | 26 | 136 | 0.0 | 4.8 | 0.00 | 0.53 | 0.00 | 35 | 987.9 |
| 20260831190510 | 26 | 207 | 0.0 | 3.2 | 0.00 | 0.53 | 0.00 | 30 | 988.0 |
| 20260831190505 | 26 | 115 | 0.0 | 4.8 | 0.00 | 0.53 | 0.00 | 34 | 987.9 |
| 20260831190005 | 26 | 123 | 0.0 | 4.8 | 0.00 | 0.53 | 0.00 | 34 | 987.9 |
| 20260831185005 | 26 | 134 | 0.0 | 3.2 | 0.00 | 0.53 | 0.00 | 33 | 988.2 |
| 20260831184505 | 26 | 146 | 0.0 | 6.4 | 0.00 | 0.53 | 0.00 | 34 | 988.2 |
| 20260831184005 | 26 | 138 | 0.0 | 6.4 | 0.00 | 0.53 | 0.00 | 33 | 988.2 |
| 20260831183502 | 26 | 357 | 0.0 | 1.6 | 0.00 | 0.53 | 0.00 | 33 | 988.2 |
| 20260831183002 | 26 | 264 | 0.0 | 3.2 | 0.00 | 0.53 | 0.00 | 33 | 988.3 |
| 20260831182501 | 26 | 319 | 0.0 | 3.2 | 0.00 | 0.53 | 0.00 | 34 | 988.3 |
| 20260831182001 | 26 | 352 | 0.0 | 3.2 | 0.00 | 0.53 | 0.00 | 33 | 988.3 |
| 20260831181505 | 26 | 259 | 0.0 | 1.6 | 0.00 | 0.53 | 0.00 | 36 | 988.4 |
| 20260831181501 | 26 | 319 | 0.0 | 3.2 | 0.00 | 0.53 | 0.00 | 35 | 988.4 |
| 20260831180501 | 25 | 5 | 0.0 | 4.8 | 0.00 | 0.53 | 0.00 | 33 | 988.5 |
| 20260831180000 | 25 | 342 | 0.0 | 4.8 | 0.00 | 0.53 | 0.00 | 36 | 988.5 |
| 20260831175501 | 25 | 165 | 0.0 | 3.2 | 0.00 | 0.53 | 0.00 | 35 | 988.6 |
| 20260831175001 | 25 | 25 | 0.0 | 8.0 | 0.00 | 0.53 | 0.00 | 37 | 988.5 |
| 20260831174505 | 25 | 134 | 0.0 | 6.4 | 0.00 | 0.53 | 0.00 | 36 | 988.5 |
| 20260831174501 | 25 | 342 | 0.0 | 8.0 | 0.00 | 0.53 | 0.00 | 35 | 988.5 |